Location: Drocourt
(49.0571°N, 1.7669°E)
Time: 14:25:41
(UTC+00:00)

Vanguard 2 Rocket - Pass Details

Date: 19 April 2024
Orbit: 556 x 3304 km, 32.9° (Epoch: 22 May)

Event Time Altitude Azimuth Distance (km) Brightness Sun altitude
Rises 23:46:08 0° 251° (WSW) 6,921 11.2 -29.7°
Reaches altitude 10° 23:50:47 10° 246° (WSW) 6,088 10.9 -29.7°
Maximum altitude 00:09:08 47° 181° (S) 3,892 9.5 -29.5°
Drops below altitude 10° 00:24:57 10° 115° (ESE) 5,314 10.6 -29.2°
Sets 00:28:40 0° 110° (ESE) 6,016 11.0 -29.1°
